Time,TemperatureF,DewpointF,PressureIn,WindDirection,WindDirectionDegrees,WindSpeedMPH,WindSpeedGustMPH,Humidity,HourlyPrecipIn,Conditions,Clouds,dailyrainin,SoftwareType,DateUTC
2013-01-24 00:11:00,-21.9,-26.0,30.82,NNW,331,0.0,0.0,79,0.00,,,0.00,weatherlink.com 1.10,2013-01-24 06:11:00,
2013-01-24 00:26:00,-22.1,-27.0,30.81,NNW,331,0.0,1.0,79,0.00,,,0.00,weatherlink.com 1.10,2013-01-24 06:26:00,
2013-01-24 00:41:00,-22.3,-27.0,30.81,NNW,331,0.0,1.0,79,0.00,,,0.00,weatherlink.com 1.10,2013-01-24 06:41:00,
2013-01-24 00:56:00,-22.6,-27.0,30.80,NNW,331,0.0,0.0,79,0.00,,,0.00,weatherlink.com 1.10,2013-01-24 06:56:00,
2013-01-24 01:11:00,-22.6,-27.0,30.81,NNW,331,0.0,1.0,79,0.00,,,0.00,weatherlink.com 1.10,2013-01-24 07:11:00,
2013-01-24 01:26:00,-22.6,-27.0,30.81,NNW,331,0.0,0.0,79,0.00,,,0.00,weatherlink.com 1.10,2013-01-24 07:26:00,
2013-01-24 01:41:00,-22.6,-27.0,30.80,NNW,331,0.0,1.0,80,0.00,,,0.00,weatherlink.com 1.10,2013-01-24 07:41:00,
2013-01-24 01:56:00,-22.4,-27.0,30.80,NNW,331,0.0,0.0,80,0.00,,,0.00,weatherlink.com 1.10,2013-01-24 07:56:00,
2013-01-24 02:11:00,-22.2,-26.0,30.80,NNW,331,0.0,1.0,80,0.00,,,0.00,weatherlink.com 1.10,2013-01-24 08:11:00,
2013-01-24 02:27:00,-22.0,-26.0,30.81,NNW,331,0.0,1.0,80,0.00,,,0.00,weatherlink.com 1.10,2013-01-24 08:27:00,
2013-01-24 02:41:00,-21.7,-26.0,30.81,North,355,0.0,2.0,80,0.00,,,0.00,weatherlink.com 1.10,2013-01-24 08:41:00,
2013-01-24 02:56:00,-21.8,-26.0,30.81,North,355,0.0,0.0,79,0.00,,,0.00,weatherlink.com 1.10,2013-01-24 08:56:00,
2013-01-24 03:12:00,-21.9,-26.0,30.82,North,355,0.0,0.0,80,0.00,,,0.00,weatherlink.com 1.10,2013-01-24 09:12:00,
2013-01-24 03:27:00,-22.0,-26.0,30.82,North,355,0.0,0.0,80,0.00,,,0.00,weatherlink.com 1.10,2013-01-24 09:27:00,
2013-01-24 03:42:00,-22.1,-27.0,30.82,North,355,0.0,0.0,79,0.00,,,0.00,weatherlink.com 1.10,2013-01-24 09:42:00,
2013-01-24 03:57:00,-22.2,-26.0,30.82,North,355,0.0,1.0,80,0.00,,,0.00,weatherlink.com 1.10,2013-01-24 09:57:00,
2013-01-24 04:12:00,-22.2,-26.0,30.82,North,355,0.0,0.0,80,0.00,,,0.00,weatherlink.com 1.10,2013-01-24 10:12:00,
2013-01-24 04:27:00,-22.3,-27.0,30.82,North,355,0.0,0.0,79,0.00,,,0.00,weatherlink.com 1.10,2013-01-24 10:27:00,
2013-01-24 04:42:00,-22.5,-27.0,30.82,North,355,0.0,0.0,79,0.00,,,0.00,weatherlink.com 1.10,2013-01-24 10:42:00,
2013-01-24 04:57:00,-999.0,-99.9,30.82,North,-999,-999.0,-999.0,-999,0.00,,,0.00,weatherlink.com 1.10,2013-01-24 10:57:00,
2013-01-24 05:12:00,-22.7,-27.0,30.81,North,355,0.0,0.0,79,0.00,,,0.00,weatherlink.com 1.10,2013-01-24 11:12:00,
2013-01-24 05:28:00,-22.7,-27.0,30.81,North,355,0.0,0.0,79,0.00,,,0.00,weatherlink.com 1.10,2013-01-24 11:28:00,
2013-01-24 05:43:00,-22.5,-27.0,30.82,North,355,0.0,0.0,80,0.00,,,0.00,weatherlink.com 1.10,2013-01-24 11:43:00,
2013-01-24 05:57:00,-22.3,-27.0,30.82,North,355,0.0,0.0,80,0.00,,,0.00,weatherlink.com 1.10,2013-01-24 11:57:00,
2013-01-24 06:13:00,-22.0,-26.0,30.83,North,355,0.0,0.0,80,0.00,,,0.00,weatherlink.com 1.10,2013-01-24 12:13:00,
2013-01-24 06:28:00,-21.7,-26.0,30.83,North,355,0.0,0.0,80,0.00,,,0.00,weatherlink.com 1.10,2013-01-24 12:28:00,
2013-01-24 06:43:00,-21.4,-25.0,30.82,North,355,0.0,0.0,81,0.00,,,0.00,weatherlink.com 1.10,2013-01-24 12:43:00,
2013-01-24 06:58:00,-20.8,-25.0,30.82,North,355,0.0,0.0,81,0.00,,,0.00,weatherlink.com 1.10,2013-01-24 12:58:00,
2013-01-24 07:13:00,-20.3,-25.0,30.83,North,355,0.0,1.0,80,0.00,,,0.00,weatherlink.com 1.10,2013-01-24 13:13:00,
2013-01-24 07:28:00,-20.3,-25.0,30.82,North,355,0.0,1.0,80,0.00,,,0.00,weatherlink.com 1.10,2013-01-24 13:28:00,
2013-01-24 07:43:00,-20.0,-24.0,30.81,North,355,0.0,1.0,80,0.00,,,0.00,weatherlink.com 1.10,2013-01-24 13:43:00,
2013-01-24 07:58:00,-19.9,-24.0,30.81,North,355,0.0,0.0,80,0.00,,,0.00,weatherlink.com 1.10,2013-01-24 13:58:00,
2013-01-24 08:13:00,-19.5,-24.0,30.81,North,355,0.0,0.0,81,0.00,,,0.00,weatherlink.com 1.10,2013-01-24 14:13:00,
2013-01-24 08:28:00,-18.2,-22.0,30.80,SE,131,1.0,2.0,82,0.00,,,0.00,weatherlink.com 1.10,2013-01-24 14:28:00,
2013-01-24 08:43:00,-17.2,-21.0,30.81,SE,132,1.0,2.0,81,0.00,,,0.00,weatherlink.com 1.10,2013-01-24 14:43:00,
2013-01-24 08:59:00,-16.6,-21.0,30.80,SE,140,0.0,2.0,81,0.00,,,0.00,weatherlink.com 1.10,2013-01-24 14:59:00,
2013-01-24 09:14:00,-15.9,-20.0,30.78,SSE,150,0.0,2.0,81,0.00,,,0.00,weatherlink.com 1.10,2013-01-24 15:14:00,
2013-01-24 09:29:00,-15.1,-19.0,30.78,SE,144,1.0,4.0,81,0.00,,,0.00,weatherlink.com 1.10,2013-01-24 15:29:00,
2013-01-24 09:43:00,-14.2,-19.0,30.78,SE,144,1.0,4.0,80,0.00,,,0.00,weatherlink.com 1.10,2013-01-24 15:43:00,
2013-01-24 09:59:00,-13.3,-18.0,30.77,SSE,153,1.0,4.0,79,0.00,,,0.00,weatherlink.com 1.10,2013-01-24 15:59:00,
2013-01-24 10:14:00,-12.4,-17.0,30.77,SSE,158,2.0,3.0,78,0.00,,,0.00,weatherlink.com 1.10,2013-01-24 16:14:00,
2013-01-24 10:29:00,-11.7,-17.0,30.77,SE,144,4.0,4.0,76,0.00,,,0.00,weatherlink.com 1.10,2013-01-24 16:29:00,
2013-01-24 10:44:00,-11.2,-17.0,30.78,SE,134,2.0,7.0,74,0.00,,,0.00,weatherlink.com 1.10,2013-01-24 16:44:00,
2013-01-24 10:59:00,-10.9,-18.0,30.77,SSE,154,2.0,5.0,72,0.00,,,0.00,weatherlink.com 1.10,2013-01-24 16:59:00,
2013-01-24 11:14:00,-10.4,-17.0,30.76,SE,137,2.0,5.0,71,0.00,,,0.00,weatherlink.com 1.10,2013-01-24 17:14:00,
2013-01-24 11:29:00,-9.7,-17.0,30.75,SSE,148,1.0,4.0,70,0.00,,,0.00,weatherlink.com 1.10,2013-01-24 17:29:00,
2013-01-24 11:44:00,-8.7,-17.0,30.74,SE,136,0.0,3.0,67,0.00,,,0.00,weatherlink.com 1.10,2013-01-24 17:44:00,
2013-01-24 11:59:00,-7.9,-16.0,30.73,SSE,148,3.0,9.0,66,0.00,,,0.00,weatherlink.com 1.10,2013-01-24 17:59:00,
2013-01-24 12:15:00,-7.6,-16.0,30.71,SSE,154,3.0,7.0,66,0.00,,,0.00,weatherlink.com 1.10,2013-01-24 18:15:00,
2013-01-24 12:29:00,-7.0,-16.0,30.71,SSE,157,3.0,6.0,65,0.00,,,0.00,weatherlink.com 1.10,2013-01-24 18:29:00,
2013-01-24 12:44:00,-6.4,-15.0,30.71,SSE,163,1.0,7.0,66,0.00,,,0.00,weatherlink.com 1.10,2013-01-24 18:44:00,
2013-01-24 12:59:00,-6.0,-15.0,30.69,SSE,148,5.0,6.0,64,0.00,,,0.00,weatherlink.com 1.10,2013-01-24 18:59:00,
2013-01-24 13:14:00,-5.5,-15.0,30.67,SE,144,3.0,5.0,64,0.00,,,0.00,weatherlink.com 1.10,2013-01-24 19:14:00,
2013-01-24 13:30:00,-5.0,-15.0,30.67,SSE,156,2.0,6.0,63,0.00,,,0.00,weatherlink.com 1.10,2013-01-24 19:30:00,
2013-01-24 13:45:00,-4.5,-14.0,30.66,SSE,148,1.0,5.0,63,0.00,,,0.00,weatherlink.com 1.10,2013-01-24 19:45:00,
2013-01-24 14:00:00,-4.1,-14.0,30.66,SE,133,2.0,4.0,63,0.00,,,0.00,weatherlink.com 1.10,2013-01-24 20:00:00,
2013-01-24 14:15:00,-4.0,-13.0,30.65,SE,146,1.0,6.0,64,0.00,,,0.00,weatherlink.com 1.10,2013-01-24 20:15:00,
2013-01-24 14:30:00,-3.4,-13.0,30.64,SSE,153,2.0,5.0,64,0.00,,,0.00,weatherlink.com 1.10,2013-01-24 20:30:00,
2013-01-24 14:45:00,-2.8,-12.0,30.64,South,172,2.0,6.0,64,0.00,,,0.00,weatherlink.com 1.10,2013-01-24 20:45:00,
2013-01-24 15:00:00,-2.4,-12.0,30.62,South,184,2.0,6.0,64,0.00,,,0.00,weatherlink.com 1.10,2013-01-24 21:00:00,
2013-01-24 15:15:00,-2.3,-12.0,30.60,SE,141,4.0,7.0,64,0.00,,,0.00,weatherlink.com 1.10,2013-01-24 21:15:00,
2013-01-24 15:30:00,-2.0,-12.0,30.58,SE,138,4.0,7.0,64,0.00,,,0.00,weatherlink.com 1.10,2013-01-24 21:30:00,
2013-01-24 15:45:00,-1.8,-11.0,30.57,SSE,153,5.0,9.0,65,0.00,,,0.00,weatherlink.com 1.10,2013-01-24 21:45:00,
2013-01-24 16:00:00,-1.8,-11.0,30.56,SE,146,3.0,8.0,66,0.00,,,0.00,weatherlink.com 1.10,2013-01-24 22:00:00,
2013-01-24 16:16:00,-1.8,-11.0,30.56,SSE,161,6.0,7.0,66,0.00,,,0.00,weatherlink.com 1.10,2013-01-24 22:16:00,
2013-01-24 16:30:00,-1.6,-10.0,30.55,SE,144,2.0,6.0,67,0.00,,,0.00,weatherlink.com 1.10,2013-01-24 22:30:00,
2013-01-24 16:45:00,-1.4,-9.0,30.53,ESE,120,2.0,9.0,69,0.00,,,0.00,weatherlink.com 1.10,2013-01-24 22:45:00,
2013-01-24 17:01:00,-1.3,-9.0,30.53,SSE,159,2.0,8.0,71,0.00,,,0.00,weatherlink.com 1.10,2013-01-24 23:01:00,
2013-01-24 17:16:00,-1.0,-8.0,30.51,SE,142,3.0,7.0,73,0.00,,,0.00,weatherlink.com 1.10,2013-01-24 23:16:00,
2013-01-24 17:31:00,-0.7,-8.0,30.51,SE,145,2.0,5.0,72,0.00,,,0.00,weatherlink.com 1.10,2013-01-24 23:31:00,
2013-01-24 17:46:00,-0.4,-8.0,30.50,SE,130,2.0,6.0,71,0.00,,,0.00,weatherlink.com 1.10,2013-01-24 23:46:00,
2013-01-24 18:01:00,0.0,-8.0,30.50,SE,134,3.0,5.0,70,0.00,,,0.00,weatherlink.com 1.10,2013-01-25 00:01:00,
2013-01-24 18:16:00,0.3,-8.0,30.49,South,185,1.0,6.0,69,0.00,,,0.00,weatherlink.com 1.10,2013-01-25 00:16:00,
2013-01-24 18:31:00,0.4,-7.0,30.48,SE,132,1.0,4.0,70,0.00,,,0.00,weatherlink.com 1.10,2013-01-25 00:31:00,
2013-01-24 18:46:00,0.2,-6.0,30.46,ESE,119,1.0,7.0,75,0.00,,,0.00,weatherlink.com 1.10,2013-01-25 00:46:00,
2013-01-24 19:01:00,0.0,-5.0,30.46,SE,134,5.0,7.0,80,0.00,,,0.00,weatherlink.com 1.10,2013-01-25 01:01:00,
2013-01-24 19:17:00,-0.1,-5.0,30.43,SE,131,4.0,6.0,81,0.00,,,0.00,weatherlink.com 1.10,2013-01-25 01:17:00,
2013-01-24 19:31:00,0.1,-4.0,30.42,SE,136,4.0,6.0,81,0.00,,,0.00,weatherlink.com 1.10,2013-01-25 01:31:00,
2013-01-24 19:46:00,0.4,-4.0,30.41,SSE,150,2.0,8.0,80,0.00,,,0.00,weatherlink.com 1.10,2013-01-25 01:46:00,
2013-01-24 20:01:00,0.6,-5.0,30.40,SSE,165,4.0,9.0,79,0.00,,,0.00,weatherlink.com 1.10,2013-01-25 02:01:00,
2013-01-24 20:17:00,0.8,-4.0,30.41,SSE,148,5.0,8.0,79,0.00,,,0.00,weatherlink.com 1.10,2013-01-25 02:17:00,
2013-01-24 20:32:00,1.0,-4.0,30.40,SSE,158,3.0,9.0,80,0.00,,,0.00,weatherlink.com 1.10,2013-01-25 02:32:00,
2013-01-24 20:47:00,1.1,-4.0,30.38,SE,136,4.0,7.0,79,0.00,,,0.00,weatherlink.com 1.10,2013-01-25 02:47:00,
2013-01-24 21:02:00,1.3,-4.0,30.37,SE,138,3.0,7.0,77,0.00,,,0.00,weatherlink.com 1.10,2013-01-25 03:02:00,
2013-01-24 21:17:00,1.5,-4.0,30.37,SSE,155,4.0,7.0,77,0.00,,,0.00,weatherlink.com 1.10,2013-01-25 03:17:00,
2013-01-24 21:32:00,1.6,-4.0,30.35,SE,140,5.0,10.0,76,0.00,,,0.00,weatherlink.com 1.10,2013-01-25 03:32:00,
2013-01-24 21:47:00,1.9,-4.0,30.35,SSE,155,2.0,6.0,76,0.00,,,0.00,weatherlink.com 1.10,2013-01-25 03:47:00,
2013-01-24 22:02:00,2.1,-4.0,30.34,SSE,152,3.0,6.0,76,0.00,,,0.00,weatherlink.com 1.10,2013-01-25 04:02:00,
2013-01-24 22:17:00,2.5,-3.0,30.33,SE,136,3.0,10.0,76,0.00,,,0.00,weatherlink.com 1.10,2013-01-25 04:17:00,
2013-01-24 22:32:00,2.7,-4.0,30.32,SSE,160,3.0,10.0,74,0.00,,,0.00,weatherlink.com 1.10,2013-01-25 04:32:00,
2013-01-24 22:47:00,3.0,-3.0,30.32,SSE,149,5.0,8.0,75,0.00,,,0.00,weatherlink.com 1.10,2013-01-25 04:47:00,
2013-01-24 23:02:00,3.2,-3.0,30.32,SE,146,3.0,10.0,75,0.00,,,0.00,weatherlink.com 1.10,2013-01-25 05:02:00,
2013-01-24 23:17:00,3.4,-3.0,30.30,SSE,162,1.0,7.0,75,0.00,,,0.00,weatherlink.com 1.10,2013-01-25 05:17:00,
2013-01-24 23:33:00,3.4,-3.0,30.29,SSE,153,4.0,11.0,76,0.00,,,0.00,weatherlink.com 1.10,2013-01-25 05:33:00,
2013-01-24 23:48:00,3.6,-3.0,30.28,SE,131,7.0,9.0,75,0.00,,,0.00,weatherlink.com 1.10,2013-01-25 05:48:00,